User: anonymous   Login
Location: *
(51.5000°N, 0.1100°W)
Time: 13:18:53
(UTC+00:00)
Language:

ADEOS II - Orbit

View from above orbital plane
View from above orbital plane
View from above satellite
View from above satellite

Ground track
Ground track

The orbit data is extracted from the following two-line orbital elements,

1 27597U 02056A   24205.39268455  .00000885  00000-0  37157-3 0  9995
2 27597  98.6928 151.9353 0000629  31.5382 328.5837 14.28423242125422
Epoch (UTC): 23 July 2024 09:25:27
Eccentricity: 0.0000629
inclination: 98.6928°
perigee height: 796 km
apogee height: 797 km
right ascension of ascending node: 151.9353°
argument of perigee: 31.5382°
revolutions per day: 14.28423242
mean anomaly at epoch: 328.5837°
orbit number at epoch: 12542

The dashed part of the orbit path shows where the satellite is in the earth's shadow,  

DLR